sat.trackr.live / text

‹ back to catalog

UNKNOWN

NORAD 87991

UNKNOWN UNKNOWN UNKNOWN

§ Identity

Operator
Country
Launch date
Launch site
Launch vehicle
Mass (kg)
RCS (m²)

External: N2YO · Heavens-Above

§ Orbital elements

Epoch: 2026-09-16T00:18:07.694784Z

Period
116.54 min
Inclination
28.6184°
Eccentricity
0.0888224
Mean motion
12.35673461 rev/d
Perigee alt
823.0 km
Apogee alt
2,227.0 km
Semi-major
7,903.1 km
B*
7.7147e-3
RAAN
175.0490°
Arg perigee
130.0579°
Mean anomaly
238.1310°
Rev number
55,730

§ Raw data

UNKNOWN1 87991U          26259.01258906  .00003906  00000+0  77147-2 0  99942 87991  28.6184 175.0490 0888224 130.0579 238.1310 12.35673461557304

JSON: /api/v1/satellites/87991 · /tle

For live sub-satellite position, see the globe view (requires WebGL).

§ Visibility from observer

Set your observer location to see the next 7 days of passes ≥ 10°. The values pass through the URL so the page stays shareable.

No JS? Fill the form by hand. The geolocation button needs JavaScript.